This demonstration page uses our WeatherBlox Daily Observations layout. Learn more.

Left ArrowRight Arrow

44.89941, -97.11507

Hourly Observations for June 30, 2022

Temp ( °F °C ) Dew Point ( °F °C ) Humidity (%) Winds ( mph kmh ) Pressure ( in mb ) Visibility ( mi km ) Precip ( " mm )
12:53 am 00:53 Clear 81 27.2 56 13.3 42 42 SSW 21 33 29.72 1006 10 16 0.00 0.00
1:45 am 01:45 Mostly Cloudy with Light Rain 78 25.6 59 15 52 52 WNW 6 9 29.71 1006 10 16 0.00 0.00
1:53 am 01:53 Mostly Cloudy with Light Rain 76 24.4 60 15.6 58 58 W 9 15 29.76 1008 10 16 0.00 0.00
2:53 am 02:53 Partly Cloudy 76 24.4 59 15 56 56 WSW 8 13 29.75 1007 10 16 0.00 0.00
3:53 am 03:53 Partly Cloudy 76 24.4 57 13.9 52 52 SSE 9 15 29.70 1006 10 16 0.00 0.00
4:53 am 04:53 Clear 72 22.2 58 14.4 61 61 NNE 6 9 29.75 1007 10 16 0.00 0.00
5:53 am 05:53 Sunny 72 22.2 58 14.4 61 61 SE 3 6 29.75 1007 10 16 0.00 0.00
6:53 am 06:53 Partly Cloudy 72 22.2 60 15.6 66 66 SE 3 6 29.75 1008 10 16 0.00 0.00
7:53 am 07:53 Sunny 75 23.9 60 15.6 60 60 S 6 9 29.75 1008 10 16 0.00 0.00
8:53 am 08:53 Sunny 78 25.6 60 15.6 54 54 VRB 5 7 29.77 1008 10 16 0.00 0.00
9:53 am 09:53 Sunny 82 27.8 59 15 46 46 NNW 15 24 29.76 1008 10 16 0.00 0.00
10:53 am 10:53 Sunny 82 27.8 63 17.2 53 53 N 18 30 29.80 1009 10 16 0.00 0.00
11:53 am 11:53 Sunny 84 28.9 50 10 31 31 N 17 28 29.83 1010 10 16 0.00 0.00
12:53 pm 12:53 Sunny 84 28.9 51 10.6 32 32 NNW 20 31 29.85 1011 10 16 0.00 0.00
1:53 pm 13:53 Sunny 82 27.8 54 12.2 38 38 N 17 28 29.87 1012 10 16 0.00 0.00
2:53 pm 14:53 Mostly Sunny 82 27.8 55 12.8 40 40 NNW 15 24 29.88 1012 10 16 0.00 0.00
3:53 pm 15:53 Sunny 81 27.2 54 12.2 39 39 N 15 24 29.89 1012 10 16 0.00 0.00
4:53 pm 16:53 Sunny 81 27.2 53 11.7 38 38 NNW 16 26 29.90 1012 10 16 0.00 0.00
5:53 pm 17:53 Sunny 78 25.6 51 10.6 39 39 NNW 14 22 29.92 1013 10 16 0.00 0.00
6:53 pm 18:53 Sunny 77 25 52 11.1 42 42 N 15 24 29.93 1013 10 16 0.00 0.00
7:53 pm 19:53 Sunny 76 24.4 52 11.1 43 43 N 12 19 29.93 1014 10 16 0.00 0.00
8:53 pm 20:53 Sunny 72 22.2 55 12.8 55 55 NNW 6 9 29.94 1014 10 16 0.00 0.00
9:53 pm 21:53 Clear 69 20.6 54 12.2 59 59 NNW 5 7 29.96 1015 10 16 0.00 0.00
10:53 pm 22:53 Clear 65 18.3 55 12.8 70 70 Calm 29.98 1015 10 16 0.00 0.00
11:53 pm 23:53 Clear 63 17.2 55 12.8 76 76 N 6 9 30.01 1016 10 16 0.00 0.00

Powered by AerisWeather